Location: Bosmont
(49.7318°N, 3.8587°E)
Time: 18:46:52
(UTC+00:00)

Cosmos 836 Rocket - Pass Details

Date: 08 February 2023
Orbit: 756 x 778 km, 74.1° (Epoch: 25 March)

Event Time Altitude Azimuth Distance (km) Brightness Sun altitude
Rises 19:22:57 0° 336° (NNW) 3,243 8.1 -24.9°
Reaches altitude 10° 19:25:20 10° 337° (NNW) 2,316 7.3 -25.2°
Maximum altitude 19:30:37 88° 68° (ENE) 778 4.4 -26.1°
Enters shadow 19:30:50 82° 140° (SE) 784 4.3 -26.1°
